[[{"header":{"parameterUnit":"m.s-1","parameterCategory":1,"la1":30.2991,"la2":30.254,"lo1":-89.0895,"lo2":-89.0444,"dy":0.0017,"dx":0.0017,"nx":28,"ny":28,"refTime":"2025-04-25T21:00:00:Z","depth":0,"parameterNumber":2,"parameterNumberName":"U-component_of_WINDS"},"data":[0,0,0,0,0,0,0,0,0,0,0,0,0,0,0,0,0,0,0,0,0,0,0,0,0,0,0,0,0,0,0,0,0,0,0,0,0,0,0,0,0,0,0,0,0,0,0,0,0,0,0,0,0,0,0,0,0,0,0.3461,0.3463,0,0.3613,0.3615,0.3617,0.3664,0.3664,0.3663,0.3662,0.3821,0.3826,0.3831,0,0,0,0,0,0,0,0,0,0,0,0,0,0.3214,0.3219,0.3461,0.3463,0.3465,0.3613,0.3615,0.3617,0.3664,0.3664,0.3663,0.3662,0.382,0.3826,0.3832,0,0,0,0,0,0,0,0,0,0,0,0,0,0.3339,0.322,0.3461,0.3506,0.3512,0.3613,0.3615,0.3618,0.3665,0.3664,0.3662,0.3661,0.3818,0.3825,0.3832,0.39,0,0,0.3855,0.3858,0,0,0,0,0,0,0,0,0.3332,0.3348,0.3498,0.3503,0.351,0.3619,0.3586,0.3712,0.3665,0.3607,0.3662,0.3661,0.3755,0.3768,0.3799,0.3907,0.3914,0.3856,0.386,0.3863,0.3865,0,0,0,0,0,0,0,0.3324,0.3342,0.3522,0.35,0.3507,0.352,0.3536,0.361,0.3685,0.3612,0.3616,0.3633,0.3758,0.3791,0.3803,0.3916,0.3855,0.3862,0.3866,0.3869,0.4087,0.4088,0,0,0,0,0,0,0.3307,0.3335,0.3517,0.3526,0.3416,0.3525,0.3544,0.3585,0.3685,0.3699,0.3633,0.3634,0.3779,0.3794,0.3808,0.3893,0.3863,0.387,0.3874,0.4085,0.4087,0.4088,0,0,0,0,0,0,0.3301,0.3323,0.3511,0.3431,0.3456,0.3531,0.3576,0.3588,0.3622,0.3701,0.3715,0.3653,0.3779,0.3798,0.3876,0.3899,0.3873,0.388,0.4084,0.4086,0.4088,0.4063,0,0,0,0,0,0,0.3294,0.332,0.3346,0.3432,0.346,0.3575,0.3578,0.3592,0.3634,0.3636,0.3723,0.3737,0.378,0.3865,0.3883,0.3909,0.3886,0.4082,0.4085,0.4087,0.4062,0.4064,0.4066,0,0,0,0,0,0.3285,0.3334,0.3347,0.3369,0.3494,0.3576,0.3593,0.364,0.3635,0.3662,0.3713,0.3734,0.3893,0.3872,0.3894,0.3922,0.4081,0.4084,0.4087,0.4062,0.4064,0.4066,0,0,0,0,0,0,0.3252,0.3347,0.3362,0.344,0.35,0.3584,0.362,0.3641,0.3704,0.3704,0.3761,0.378,0.3854,0.3896,0.387,0.3992,0.3988,0.3995,0.3962,0.3964,0.3966,0.3955,0.3892,0,0,0,0,0,0.3253,0.3311,0.3391,0.3453,0.3481,0.3545,0.3583,0.3613,0.3678,0.3704,0.376,0.3822,0.3887,0.3928,0.3991,0.4068,0.4088,0.4098,0.41,0.4101,0.4107,0.415,0.4155,0.4098,0.4098,0.4098,0,0,0.3257,0.3316,0.335,0.3447,0.3497,0.3556,0.3566,0.3629,0.3673,0.3714,0.379,0.3833,0.3907,0.3984,0.4021,0.4022,0.4126,0.4105,0.4105,0.4111,0.4153,0.4159,0.4163,0.41,0.41,0.41,0,0,0.3295,0.3346,0.3402,0.3451,0.3525,0.3567,0.358,0.3661,0.3691,0.3768,0.3799,0.3853,0.3963,0.4013,0.4053,0.4108,0.4129,0.4127,0.4136,0.4177,0.4182,0.4186,0.4205,0.4211,0.4133,0.4133,0.4133,0,0.3291,0.3381,0.3428,0.3489,0.353,0.3568,0.3625,0.3671,0.3762,0.379,0.3789,0.3926,0.3978,0.4067,0.408,0.4112,0.4129,0.4118,0.4177,0.4182,0.4187,0.4205,0.4212,0.4132,0.4132,0.4132,0.4132,0,0.3372,0.3433,0.347,0.3556,0.3602,0.366,0.3717,0.3758,0.3784,0.3826,0.3904,0.3967,0.4043,0.4067,0.4094,0.416,0.4157,0.4166,0.4163,0.419,0.4209,0.4216,0.4131,0.4131,0.4131,0.4131,0,0,0.3395,0.3504,0.3517,0.3555,0.3639,0.3688,0.3748,0.3821,0.3854,0.3916,0.3968,0.4058,0.4066,0.4111,0.4144,0.418,0.4218,0.4185,0.4187,0.4188,0.4294,0.4287,0.4294,0.4233,0.4234,0.4236,0.4287,0,0.3443,0.355,0.3594,0.3681,0.3738,0.3774,0.3826,0.3883,0.3923,0.3978,0.4023,0.4086,0.4092,0.4119,0.4156,0.4206,0.424,0.4203,0.4282,0.4284,0.4262,0.4304,0.4297,0.4343,0.4295,0.4296,0.4297,0,0.3514,0.3574,0.3666,0.3742,0.3767,0.3813,0.3883,0.3935,0.4,0.4027,0.4076,0.4107,0.4171,0.4163,0.4253,0.4226,0.4261,0.429,0.4293,0.4302,0.4292,0.4315,0.4359,0.4366,0.4309,0.4308,0.4307,0,0.352,0.3624,0.3693,0.3725,0.3815,0.3846,0.3885,0.3949,0.399,0.4051,0.4078,0.4146,0.4184,0.4236,0.4284,0.4274,0.4368,0.4365,0.4393,0.4391,0.4412,0.441,0.4462,0.4434,0.4434,0.4433,0.4433,0,0.357,0.3625,0.3697,0.3739,0.3801,0.3851,0.3912,0.3953,0.401,0.4061,0.4096,0.4143,0.4204,0.4259,0.4297,0.4365,0.4381,0.4405,0.4415,0.4402,0.4399,0.4426,0.4424,0.4435,0.4435,0.4435,0.4434,0,0.3587,0.3638,0.3715,0.3793,0.3814,0.3856,0.3923,0.3966,0.4007,0.4071,0.4089,0.4154,0.422,0.4273,0.436,0.4386,0.4457,0.4467,0.4434,0.4439,0.4463,0.446,0.4535,0.4548,0.451,0.4511,0.4511,0,0.3616,0.3659,0.374,0.3776,0.3815,0.3873,0.3914,0.3964,0.4005,0.4082,0.4115,0.4183,0.4241,0.4345,0.4401,0.4467,0.448,0.4501,0.449,0.4476,0.448,0.4476,0.4481,0.4503,0.4503,0.4503,0.4503,0,0.366,0.3682,0.374,0.3805,0.3853,0.3908,0.3963,0.3991,0.4051,0.4095,0.4163,0.4207,0.4295,0.4363,0.4435,0.4476,0.4499,0.4506,0.4516,0.4504,0.4482,0.4494,0.4437,0.4504,0.4504,0.4504,0.4504,0.4504,0.3684,0.3723,0.3787,0.3849,0.3895,0.3946,0.3989,0.4035,0.4091,0.4166,0.4192,0.4261,0.4325,0.4423,0.4464,0.452,0.4522,0.4536,0.454,0.4542,0.4541,0.4473,0.4533,0.4533,0.4533,0.4533,0.4533,0,0.373,0.3772,0.3829,0.3904,0.3953,0.3969,0.4031,0.4071,0.4131,0.4188,0.4243,0.432,0.4385,0.4444,0.4513,0.4545,0.4558,0.4561,0.456,0.4568,0.4535,0.452,0.455,0.455,0.455,0.455,0.455,0.455,0.376,0.3826,0.3856,0.3946,0.3988,0.4055,0.4089,0.4136,0.4181,0.4265,0.4318,0.4356,0.4414,0.4486,0.4547,0.4562,0.4586,0.4587,0.4605,0.4573,0.4571,0.4569,0.4554,0.4591,0.4591,0.4634,0.4634,0.4635]},{"header":{"parameterUnit":"m.s-1","parameterCategory":1,"la1":30.2991,"la2":30.254,"lo1":-89.0895,"lo2":-89.0444,"dy":0.0017,"dx":0.0017,"nx":28,"ny":28,"refTime":"2025-04-25T21:00:00:Z","depth":0,"parameterNumber":3,"parameterNumberName":"V-component_of_WINDS"},"data":[0,0,0,0,0,0,0,0,0,0,0,0,0,0,0,0,0,0,0,0,0,0,0,0,0,0,0,0,0,0,0,0,0,0,0,0,0,0,0,0,0,0,0,0,0,0,0,0,0,0,0,0,0,0,0,0,0,0,3.8503,3.8502,0,3.8453,3.8453,3.8452,3.8452,3.8452,3.8453,3.8454,3.8395,3.8393,3.8391,0,0,0,0,0,0,0,0,0,0,0,0,0,3.8591,3.8589,3.8503,3.8502,3.8501,3.8453,3.8452,3.8452,3.8452,3.8452,3.8453,3.8454,3.8396,3.8393,3.8391,0,0,0,0,0,0,0,0,0,0,0,0,0,3.8548,3.8589,3.8503,3.8496,3.8495,3.8453,3.8452,3.8452,3.8451,3.8452,3.8453,3.8454,3.8397,3.8393,3.839,3.835,0,0,3.838,3.8379,0,0,0,0,0,0,0,0,3.855,3.8545,3.8497,3.8496,3.8495,3.846,3.8462,3.8417,3.8451,3.8468,3.8454,3.8455,3.8415,3.8411,3.8399,3.8347,3.8345,3.838,3.8378,3.8377,3.8376,0,0,0,0,0,0,0,3.8553,3.8547,3.8483,3.8497,3.8495,3.8493,3.8488,3.8454,3.8436,3.8466,3.8466,3.8461,3.8415,3.8402,3.8397,3.8344,3.838,3.8377,3.8375,3.8374,3.8257,3.8256,0,0,0,0,0,0,3.8559,3.8549,3.8484,3.8481,3.8526,3.8491,3.8485,3.847,3.8437,3.8433,3.846,3.8461,3.8407,3.8401,3.8395,3.8346,3.8377,3.8373,3.8372,3.8259,3.8257,3.8256,0,0,0,0,0,0,3.8561,3.8553,3.8486,3.8515,3.8507,3.8488,3.8471,3.8468,3.8456,3.8432,3.8428,3.8451,3.8408,3.84,3.8362,3.8344,3.8372,3.8369,3.826,3.8258,3.8257,3.8248,0,0,0,0,0,0,3.8563,3.8554,3.854,3.8515,3.8505,3.8456,3.847,3.8467,3.8451,3.8452,3.8422,3.8418,3.8408,3.8367,3.8359,3.834,3.8366,3.8261,3.8259,3.8257,3.825,3.8246,3.8243,0,0,0,0,0,3.8566,3.8537,3.8539,3.8531,3.8488,3.8455,3.8449,3.844,3.845,3.8434,3.8419,3.8419,3.8348,3.8363,3.8354,3.8334,3.8262,3.826,3.8257,3.8251,3.8247,3.8243,0,0,0,0,0,0,3.8557,3.8534,3.8535,3.8498,3.8479,3.8455,3.8435,3.8436,3.8411,3.8412,3.84,3.8393,3.8356,3.8341,3.8358,3.8294,3.8306,3.8302,3.8305,3.83,3.8297,3.8301,3.8364,0,0,0,0,0,3.8551,3.8529,3.8509,3.8478,3.8468,3.8454,3.8439,3.8434,3.8413,3.8404,3.8386,3.8363,3.8335,3.8317,3.829,3.8248,3.8241,3.823,3.8227,3.8224,3.822,3.8197,3.8191,3.8248,3.8248,3.8248,0,0,3.8538,3.8522,3.8508,3.8476,3.846,3.8435,3.8447,3.8419,3.84,3.8398,3.8362,3.8349,3.8322,3.8282,3.8263,3.8269,3.8203,3.8221,3.8219,3.8216,3.8194,3.8188,3.8184,3.8246,3.8246,3.8246,0,0,3.8501,3.8487,3.846,3.8445,3.8423,3.8414,3.8407,3.8384,3.8376,3.834,3.8338,3.8314,3.8267,3.8249,3.8233,3.8191,3.8189,3.8183,3.8165,3.8142,3.8138,3.8134,3.8118,3.8113,3.8179,3.8179,3.8179,0,3.8486,3.8451,3.8446,3.8419,3.8405,3.8405,3.8377,3.8362,3.833,3.8319,3.8327,3.8269,3.8251,3.8207,3.8197,3.8184,3.8175,3.8185,3.814,3.8135,3.8131,3.8116,3.8111,3.8178,3.8178,3.8178,3.8178,0,3.8434,3.8409,3.839,3.8363,3.8346,3.8319,3.8308,3.8291,3.8288,3.8278,3.8241,3.822,3.819,3.8179,3.8174,3.8134,3.8138,3.8143,3.8154,3.8126,3.8111,3.8105,3.8177,3.8177,3.8177,3.8178,0,0,3.8387,3.8361,3.8353,3.8342,3.8318,3.8298,3.827,3.8243,3.8229,3.8207,3.8183,3.8144,3.8149,3.8131,3.8125,3.8105,3.8073,3.8112,3.8111,3.8105,3.8027,3.8023,3.8017,3.8073,3.8072,3.8071,3.8029,0,3.8347,3.8301,3.8297,3.8254,3.8231,3.8232,3.8208,3.819,3.818,3.8157,3.8145,3.8118,3.8126,3.8116,3.8096,3.8081,3.8057,3.8084,3.8048,3.8047,3.8054,3.8009,3.8005,3.7967,3.8023,3.8022,3.8022,0,3.8294,3.8275,3.8231,3.8212,3.8202,3.8181,3.8156,3.8135,3.8114,3.8108,3.809,3.8086,3.8056,3.8071,3.8028,3.8047,3.8031,3.8022,3.802,3.8015,3.8032,3.8003,3.7954,3.7948,3.8013,3.8014,3.8014,0,3.8264,3.8227,3.8197,3.8187,3.8163,3.8148,3.8137,3.8118,3.8102,3.808,3.807,3.8043,3.8028,3.8007,3.7996,3.8008,3.7954,3.7967,3.7946,3.7947,3.7934,3.7934,3.7881,3.7925,3.7926,3.7926,3.7926,0,3.8219,3.8192,3.8183,3.8164,3.8134,3.8128,3.8098,3.8087,3.807,3.8047,3.8046,3.8024,3.8012,3.7988,3.7979,3.7944,3.7937,3.793,3.7928,3.793,3.7931,3.7919,3.7921,3.7924,3.7924,3.7925,3.7925,0,3.818,3.8173,3.814,3.8122,3.8117,3.8095,3.8079,3.8059,3.805,3.8022,3.8015,3.7999,3.7971,3.7959,3.7923,3.7917,3.7878,3.7878,3.7886,3.7885,3.7865,3.7867,3.7801,3.7792,3.7843,3.7843,3.7842,0,3.8152,3.8132,3.8113,3.8099,3.8089,3.8066,3.8052,3.8045,3.8029,3.8005,3.7988,3.7961,3.7939,3.7894,3.7878,3.7851,3.7849,3.7828,3.7845,3.7848,3.7848,3.7849,3.7847,3.7825,3.7824,3.7824,3.7823,0,3.8102,3.81,3.808,3.8059,3.8043,3.8025,3.8007,3.7996,3.7986,3.7968,3.7942,3.7925,3.789,3.7863,3.7835,3.7821,3.782,3.7819,3.7812,3.7814,3.7819,3.7816,3.7877,3.782,3.782,3.782,3.7821,3.7821,3.8066,3.8049,3.8034,3.8012,3.7999,3.7983,3.7965,3.7955,3.7933,3.7907,3.7904,3.7874,3.7854,3.7817,3.7803,3.7779,3.7783,3.7774,3.7772,3.7769,3.7768,3.7824,3.7774,3.7774,3.7774,3.7774,3.7774,0,3.8016,3.8007,3.7987,3.7965,3.7947,3.7952,3.7933,3.7917,3.7893,3.7875,3.7855,3.7824,3.7797,3.7781,3.7754,3.7737,3.7736,3.773,3.7731,3.7728,3.7765,3.7774,3.7732,3.7732,3.7732,3.7732,3.7732,3.7732,3.7988,3.7959,3.7955,3.792,3.791,3.7884,3.7873,3.7858,3.7844,3.7811,3.779,3.7781,3.7763,3.7735,3.7711,3.7706,3.7696,3.769,3.7685,3.7721,3.7725,3.7729,3.7737,3.7688,3.7688,3.765,3.7649,3.7649]}]]